This is the latest recevied weather packets stored in our database for station/object OK2ILA-1. If no packets are shown the sender has not sent any weather packets the latest 10 day(s).
| Time | Temp. | Humidity | Pressure | Rain* | Wind** | Luminosity | Snow |
|---|---|---|---|---|---|---|---|
| 1777587326 | 5.56° C | 100% | 1029.3 hPa | 0 mm | - | - | - |
| 1777586606 | 5° C | 100% | 1029.4 hPa | 0 mm | - | - | - |
| 1777585885 | 5.56° C | 100% | 1029.6 hPa | 0 mm | - | - | - |
| 1777585164 | 5.56° C | 100% | 1029.6 hPa | 0 mm | - | - | - |
| 1777584444 | 6.11° C | 100% | 1029.6 hPa | 0 mm | - | - | - |
| 1777583723 | 6.11° C | 100% | 1029.4 hPa | 0 mm | - | - | - |
| 1777583002 | 6.11° C | 100% | 1029.3 hPa | 0 mm | - | - | - |
| 1777582282 | 6.67° C | 100% | 1029.2 hPa | 0 mm | - | - | - |
| 1777581561 | 6.67° C | 100% | 1029.1 hPa | 0 mm | - | - | - |
| 1777580840 | 7.22° C | 100% | 1029.1 hPa | 0 mm | - | - | - |
| 1777580119 | 7.22° C | 100% | 1029.2 hPa | 0 mm | - | - | - |
| 1777579399 | 7.78° C | 100% | 1029.2 hPa | 0 mm | - | - | - |
| 1777578678 | 8.33° C | 100% | 1029.2 hPa | 0 mm | - | - | - |
| 1777577958 | 8.89° C | 100% | 1029.1 hPa | 0 mm | - | - | - |
| 1777577237 | 9.44° C | 100% | 1029.1 hPa | 0 mm | - | - | - |
| 1777576516 | 9.44° C | 100% | 1028.9 hPa | 0 mm | - | - | - |
| 1777575795 | 10.56° C | 100% | 1028.8 hPa | 0 mm | - | - | - |
| 1777575075 | 10.56° C | 100% | 1028.8 hPa | 0 mm | - | - | - |
| 1777574354 | 11.11° C | 100% | 1028.7 hPa | 0 mm | - | - | - |
| 1777573633 | 11.11° C | 100% | 1028.7 hPa | 0 mm | - | - | - |
| 1777572913 | 11.11° C | 100% | 1028.6 hPa | 0 mm | - | - | - |
| 1777572192 | 11.67° C | 100% | 1028.5 hPa | 0 mm | - | - | - |
| 1777571471 | 12.22° C | 100% | 1028.5 hPa | 0 mm | - | - | - |
| 1777570751 | 12.22° C | 100% | 1028.4 hPa | 0 mm | - | - | - |
| 1777570030 | 12.78° C | 100% | 1028.4 hPa | 0 mm | - | - | - |
* Rain latest hour (hover to see other rain measurements)
** Current wind speed in m/s (hover to see current wind gust speed)